Location: Climax
(33.2048°N, 96.4497°W)
Time: 19:17:12
(UTC+00:00)

SL-4 R/B - Pass Details

Date: 11 July 2022
Orbit: 425 x 653 km, 51.6° (Epoch: 16 August)

Event Time Altitude Azimuth Distance (km) Brightness Sun altitude
Rises 10:31:07 0° 314° (NW) 2,587 5.3 -10.5°
Reaches altitude 10° 10:33:14 10° 316° (NW) 1,738 4.5 -10.2°
Maximum altitude 10:37:11 82° 42° (NE) 552 2.1 -9.5°
Drops below altitude 10° 10:41:28 10° 132° (SE) 1,875 4.9 -8.7°
Sets 10:43:49 0° 133° (SE) 2,810 5.8 -8.3°
